Regional Weather Roundup
Issued by NWS

Home | Current Version | Previous Version | Graphics & Text | Print | Product List | Glossary On
Versions: 1 2 3 4 5 6 7 8 9 10 11 12 13 14 15 16 17 18 19 20 21 22 23 24 25 26 27 28 29 30 31 32 33 34 35 36 37 38 39 40 41 42 43 44 45 46 47 48 49 50
000
ASUS45 KTFX 210419
RWRMT
MONTANA HOURLY WEATHER ROUNDUP
NATIONAL WEATHER SERVICE GREAT FALLS MT
919 PM MST SAT DEC 20 2014

NOTE: "FAIR" INDICATES FEW OR NO CLOUDS BELOW 12000 FEET WITH NO
SIGNIFICANT WEATHER AND/OR OBSTRUCTIONS TO VISIBILITY.

* THESE STATIONS ARE NOT UNDER NWS QUALITY CONTROL. THEY DO NOT
   REPORT WEATHER SUCH AS PRECIPITATION OR FOG.

MTZ001>007-043-210500-
WEST OF THE DIVIDE
CITY           SKY/WX    TMP DP  RH WIND       PRES   REMARKS
KALISPELL      CLOUDY    32  30  92 CALM      29.66F
MISSOULA       LGT SNOW  30  30 100 NW3       29.73R
BUTTE          CLOUDY    34  25  70 S9        29.72F WCI  27
MULLAN PASS    LGT SNOW  30  27  89 VRB5      29.58F VSB M1/4 WCI  25
* ESSEX        N/A       31  30  96 N/A        N/A
* EUREKA APT   CLOUDY    37  30  76 S15       29.61F WCI  28
* HAMILTON APT CLOUDY    43  32  65 S9        29.70S
* LIBBY APT    CLOUDY   N/A N/A N/A CALM       N/A   VSB 1 1/4
* LINCOLN      N/A       30  25  82 NW3        N/A
* LOOKOUT PASS N/A       32  32 100 E4         N/A
* POLSON       N/A       34  32  92 SE1        N/A
* RONAN APT    CLOUDY    34  30  85 N/A        N/A
* SEELEY LAKE  N/A       27  26  96 N/A        N/A
* THOMP F APT  CLOUDY    28  27  96 S6G11      N/A   WCI  21
$$

MTZ008-052>055-210500-
SOUTHWEST MONTANA
CITY           SKY/WX    TMP DP  RH WIND       PRES   REMARKS
BOZEMAN        CLOUDY    30  25  82 SE7       29.72F WCI  23
DILLON         CLOUDY    34  25  70 SW5       29.76S WCI  29
* W YELLOWSTON CLOUDY    29  27  92 SW5G15     N/A   WCI  24
* THREE FORKS  CLOUDY    43  43 100 S18G31     N/A
* BOULDER HILL N/A       31  20  64 S16        N/A   WCI  20
* MONIDA PASS  N/A       27  27 100 SE16G22    N/A   WCI  15
* RAYNOLDS PAS N/A       30  14  51 S14        N/A   WCI  19
* WHITEHALL    N/A       40  24  53 SW13G20    N/A   WCI  32
* WISE RIVER   N/A       26  23  88 W2G7       N/A
$$

MTZ009>010-012-014-046-048-049-054-210500-
EAST SLOPES AND CENTRAL MONTANA
CITY           SKY/WX    TMP DP  RH WIND       PRES   REMARKS
CUT BANK       MOCLDY    28  21  75 SE7       29.54F WCI  21
GREAT FALLS    PTCLDY    36  27  70 S10       29.60F WCI  29
HELENA         CLOUDY    34  28  79 NW5       29.66F WCI  29
MALMSTROM AFB  PTCLDY    37  27  67 SW15      29.62F WCI  28
* CONRAD       MOCLDY    28  25  89 S5         N/A   WCI  22
* DEARBORN     N/A       46  24  42 S12G33     N/A
* EAST GLACIER N/A       35  27  73 W27G35     N/A   WCI  22
* MONARCH      N/A       34  16  48 S9G16      N/A   WCI  27
* PENDROY      N/A       30  25  82 SE5        N/A   WCI  25
* ROGERS PASS  N/A       31  24  75 SE9G14     N/A   WCI  23
* SWEET GRASS  N/A       29  20  69 S16        N/A   WCI  17
* WHITE SULPH  N/A       33  23  67 S11        N/A   WCI  24
$$

MTZ011-013-016-021-035-040-045-047-050-051-210500-
NORTH CENTRAL MONTANA
CITY           SKY/WX    TMP DP  RH WIND       PRES   REMARKS
HAVRE          CLEAR     36  27  70 S13       29.60F WCI  27
LEWISTOWN      PTCLDY    37  25  62 SW16      29.65F WCI  28
* N BAR RANCH  MOCLDY    30  19  64 VRB3      29.68F
* CHINOOK      CLEAR     27  19  72 NE5       29.62F WCI  21
* CHESTER      N/A       20  16  84 NE2        N/A
* DENTON       N/A       33  23  67 S11        N/A   WCI  24
* GEYSER       N/A       32  18  56 E4         N/A
* JUDITH GAP   N/A       30  22  72 S9         N/A   WCI  22
* LOMA         N/A       31  25  78 NE6        N/A   WCI  25
$$

MTZ017>020-022>027-061-062-210500-
NORTHEAST MONTANA
CITY           SKY/WX    TMP DP  RH WIND       PRES   REMARKS
GLASGOW        CLEAR     27  19  72 E12       29.68F WCI  16
GLENDIVE       CLEAR     27  18  69 S6        29.74F WCI  20
JORDAN         CLEAR     23  19  85 W3        29.69F
SIDNEY         CLEAR     27  21  78 S6        29.76F WCI  20
WOLF POINT     CLEAR     21  19  92 CALM      29.73F
* BEAVER HILL  N/A       30  23  75 S11        N/A   WCI  21
* CIRCLE       N/A       31  24  75 N/A        N/A
* LINDSAY DVD  N/A       26  19  75 SW6        N/A   WCI  19
* PLENTYWOOD A CLEAR     28  25  89 SE5       29.70F WCI  22
* POPLAR APT   CLEAR     28  23  81 CALM      29.73F
* SACO         N/A       25  20  81 SE1        N/A
$$

MTZ028>042-056>058-210500-
SOUTHCENTRAL AND SOUTHEAST MONTANA
CITY           SKY/WX    TMP DP  RH WIND       PRES   REMARKS
BAKER          CLEAR     25  21  85 E3        29.76F
BILLINGS       MOCLDY    34  21  59 SW15      29.73F WCI  24
LIVINGSTON     MOCLDY    43  23  45 SW28G46   29.67F
MILES CITY     CLEAR     30  21  69 SE10      29.74F WCI  21
* FORSYTH APT  CLEAR     32  25  75 CALM      29.72F
* LAUREL APT   PTCLDY    30  18  61 SW9        N/A   WCI  22
* ROUNDUP APT  PTCLDY    34  21  59 S6         N/A   WCI  29
* ALZADA       N/A       29  24  82 E1         N/A
* HYSHAM       N/A       37  19  48 W4         N/A
* LAME DEER    N/A       33  23  67 SW9        N/A   WCI  25
* REED POINT   N/A       29  23  78 NW2        N/A
* ROSCOE HILL  N/A       36  10  34 S2G10      N/A
$$

REGIONAL REPORTS...DAKOTAS
CITY           SKY/WX    TMP DP  RH WIND       PRES   REMARKS
WILLISTON      PTCLDY    27  21  78 CALM      29.73F
DICKINSON      PTCLDY    28  21  75 W7        29.75S WCI  21
BEACH          CLEAR     27  25  92 SW10      29.76F WCI  18
CROSBY         CLEAR     27  27 100 S8        29.70F WCI  19
TIOGA          CLEAR     25  25 100 W7        29.74F WCI  17
WATFORD CITY   CLEAR     27  25  92 CALM      29.72F
BISMARCK       PTCLDY    18  16  92 NE5       29.80F WCI  11
GRAND FORKS    FOG       30  28  92 S16       29.87F WCI  19
FARGO          FOG       34  28  79 S21G29    29.90S WCI  22
BUFFALO SD     CLOUDY    36  25  64 W5        29.71F WCI  32
RAPID CITY     CLOUDY    36  27  70 CALM      29.81F
$$

REGIONAL REPORTS...WYOMING/IDAHO/WASHINGTON
CITY           SKY/WX    TMP DP  RH WIND       PRES   REMARKS
GILLETTE       MOCLDY    34  25  70 SW15      29.76F WCI  24
SHERIDAN       PTCLDY    25  18  75 CALM      29.75F
CODY           MOCLDY    37  21  52 SW10      29.75F WCI  30
YELLOWSTONE LA CLOUDY    27  21  78 CALM      29.87F
SALMON         CLOUDY    37  28  70 S8        29.80F WCI  31
MULLAN PASS    LGT SNOW  30  27  89 VRB5      29.58S VSB M1/4 WCI  25
SAND POINT     LGT RAIN  34  34 100 NE5       29.61F WCI  29
SPOKANE        LGT RAIN  41  39  93 SE15      29.56F
$$

REGIONAL REPORTS...ALBERTA
CITY           SKY/WX    TMP DP  RH WIND       PRES   REMARKS
CALGARY        FAIR      27  19  72 S5        29.38F WCI  21
LETHBRIDGE     FAIR      28  23  81 S21       29.49F WCI  14
MEDICINE HAT   CLEAR     27  21  78 S3        29.53F
EDMONTON       FAIR      23  18  81 SE14      29.36F WCI  10
WATERTON GATE  N/A       37  27  67 SW17G26    N/A   WCI  27
CARDSTON       N/A       27  23  85 S6         N/A   WCI  20
MILK RIVER     N/A       25  21  85 S7         N/A   WCI  17
$$

REGIONAL REPORTS...SASKATCHEWAN
CITY           SKY/WX    TMP DP  RH WIND       PRES   REMARKS
SWIFT CURRENT  CLEAR     25  19  78 S10       29.58F WCI  15
REGINA         FOG       18  18 100 S5        29.66F VSB M1/4 WCI  11
VAL MARIE      N/A       14  12  92 SW2        N/A
ASSINIBOIA     N/A       25  21  85 SW9        N/A   WCI  16
CORONACH       N/A       28  23  81 SW8        N/A   WCI  20

$$



USA.gov is the U.S. government's official web portal to all federal, state and local government web resources and services.